Lapse_Rate
5.8 6.5 6.5 6.5 6.5 6.5 6.5 6.5 6.5 6.5 6.5 6.5 6.5 6.5 6.5 5.7 5.2 4.5 3.1 2.3 4.2 4.0 4.7 4.5 3.8 3.0 2.8 2.3 1.3 0.9 0.7 -0.0 -0.0 -0.3 -1.0 -1.0 -1.0 -0.3 0.2 1.1 1.5 2.2 3.2 3.5
6.5 6.5 6.5 6.5 6.5 6.5 6.5 6.5 6.5 6.5 6.5 6.5 6.5 6.5 6.5 6.5 6.1 5.5 5.5 4.0 4.9 6.8 6.4 5.6 3.9 2.5 2.0 2.2 2.4 1.8 1.2 -0.1 -0.9 -0.8 -0.5 -0.9 -1.3 -1.4 -0.2 -0.2 -0.7 0.1 -0.0 0.9
6.5 6.5 6.5 6.5 6.5 6.5 6.5 6.5 6.5 6.5 6.5 6.5 6.5 6.5 6.5 6.5 6.2 6.2 6.2 5.4 6.6 7.2 6.9 5.6 4.2 3.3 2.6 1.5 1.5 1.2 0.4 -0.5 -1.5 -1.4 -1.1 -1.1 -0.2 -0.2 -1.0 -1.5 -1.3 -1.0 -0.8 -0.2
6.5 6.4 6.5 6.5 6.5 6.5 6.5 6.5 6.5 6.5 6.5 6.5 6.5 6.5 6.5 6.5 6.5 6.5 6.0 5.5 6.5 6.8 6.1 5.6 4.7 3.3 2.6 2.6 1.7 0.8 0.3 -0.5 -0.6 -1.7 -2.1 -2.3 -1.6 -1.4 -1.2 -1.6 -1.6 -2.1 -2.1 -2.0
6.5 6.5 6.5 6.5 6.5 6.5 6.5 6.5 6.5 6.5 6.5 6.5 6.5 6.5 6.5 6.5 6.5 6.5 6.4 6.7 6.2 6.2 5.5 5.3 5.0 3.8 3.1 2.1 0.9 0.7 0.9 -0.0 -0.5 -1.4 -1.8 -2.5 -2.5 -1.8 -1.7 -1.5 -2.0 -2.2 -1.9 -1.3
6.5 6.0 6.5 6.5 6.5 6.5 6.5 6.5 6.5 6.5 6.5 6.5 6.5 6.5 6.5 6.5 6.5 6.5 6.5 6.8 7.0 7.0 7.2 6.7 6.0 4.1 2.6 2.1 1.0 -0.2 -0.2 -0.7 -1.0 -1.5 -1.7 -2.2 -2.2 -2.2 -2.2 -2.1 -1.7 -1.8 -2.1 -2.3
6.5 6.5 6.5 6.3 6.5 6.5 6.5 6.5 6.5 6.5 6.5 6.5 6.5 6.5 6.5 6.5 6.5 6.5 6.6 7.0 7.5 7.8 6.5 5.9 5.6 5.0 4.3 2.9 1.0 1.0 -0.5 -0.9 -1.1 -1.5 -1.7 -1.6 -1.4 -1.3 -0.9 -0.4 -0.9 -0.9 -1.3 -1.5
6.5 6.5 6.5 6.5 6.5 6.5 6.5 6.5 6.5 6.5 6.5 6.5 6.5 6.5 6.5 6.5 6.8 7.0 7.2 7.3 7.4 8.0 7.0 5.8 5.3 5.3 5.8 4.4 1.8 0.5 -0.4 -0.4 -1.3 -1.5 -2.0 -1.6 -0.9 -0.5 -0.0 1.0 1.0 0.4 -0.0 -0.4
6.5 6.5 6.5 6.5 6.5 6.5 6.5 6.5 6.5 6.5 6.5 6.5 6.5 6.5 6.5 6.5 6.5 6.8 6.8 6.7 7.0 6.8 6.5 6.3 5.6 4.9 4.7 3.0 2.2 1.5 0.3 -0.7 -0.7 -0.5 -0.4 -0.5 -0.3 0.4 1.2 1.7 2.1 1.4 1.1 1.1
6.5 6.5 6.5 6.5 6.5 6.5 6.5 6.5 6.5 6.5 6.5 6.5 6.5 6.5 6.5 6.5 6.5 6.5 6.6 6.8 7.1 7.1 6.9 5.7 4.5 4.8 4.9 4.7 3.8 2.7 1.7 1.2 1.3 1.5 1.4 1.5 1.7 2.2 2.5 2.1 1.9 2.4 2.4 2.4
6.5 6.5 6.5 6.5 6.5 6.5 6.5 6.5 6.5 6.5 6.5 6.5 6.5 6.5 6.5 6.5 6.5 6.5 6.5 7.0 7.0 7.2 6.7 6.3 5.9 5.6 5.4 4.4 2.6 1.8 1.9 2.9 2.8 2.9 3.1 2.9 2.5 2.7 3.0 3.0 2.6 2.8 2.5 2.2
6.5 6.5 6.5 6.5 6.5 6.5 6.5 6.5 6.5 6.5 6.5 6.5 6.5 6.5 6.5 6.5 6.5 6.7 6.8 7.1 6.1 6.0 5.5 5.1 5.3 5.2 4.4 4.0 3.2 3.4 4.1 4.9 4.8 4.8 4.7 4.2 4.1 3.6 3.5 2.8 2.4 2.4 2.0 1.7
6.5 6.5 6.5 6.5 6.5 6.5 6.5 6.5 6.5 6.5 6.5 6.5 6.5 6.5 6.5 6.5 6.5 6.7 6.7 7.2 7.4 7.3 6.4 5.6 5.0 4.4 4.9 5.5 5.2 5.1 5.4 4.8 4.8 5.2 5.2 5.0 4.7 4.3 3.9 3.3 2.7 2.2 1.9 2.1
5.9 6.5 6.5 6.5 6.5 6.5 6.5 6.5 6.5 6.5 6.5 6.5 6.5 6.5 6.5 6.5 6.5 6.6 6.9 7.2 6.9 6.6 7.1 7.5 7.3 7.4 6.8 5.5 5.0 5.3 5.0 5.1 4.9 4.5 4.5 5.3 5.6 5.7 5.4 4.7 3.6 3.2 3.0 2.4
6.5 6.5 6.5 6.5 6.5 6.5 6.5 6.5 6.5 6.5 6.5 6.5 6.5 6.5 6.5 6.5 6.5 6.6 7.1 7.3 7.3 7.4 7.6 7.6 7.6 7.0 5.6 5.3 5.0 4.7 4.6 4.4 4.3 4.6 5.0 5.1 5.8 5.7 5.8 5.1 4.0 3.6 3.4 3.3
6.5 6.5 6.5 6.5 6.5 6.5 6.5 6.5 6.5 6.5 6.5 6.5 6.5 6.5 6.5 6.8 6.9 6.9 7.1 7.2 7.2 7.4 7.5 7.6 7.6 5.8 5.2 4.9 4.4 3.7 3.3 3.1 3.8 4.0 4.4 4.1 4.2 5.2 4.9 4.9 4.6 3.9 3.1 2.5
6.5 6.5 6.5 6.5 6.5 6.5 6.5 6.5 6.5 6.5 6.5 6.5 6.5 6.5 6.5 6.5 6.6 6.8 6.6 7.1 7.3 7.4 7.5 6.9 5.4 4.5 4.3 4.1 3.6 3.3 3.1 3.1 3.1 2.7 2.8 3.2 2.8 3.4 4.5 4.3 4.4 3.8 3.6 2.8
6.5 6.5 6.5 6.5 6.5 6.5 6.5 6.5 6.5 6.5 6.5 6.5 6.5 6.5 6.5 6.7 7.0 7.0 6.7 7.2 7.3 7.3 6.7 5.2 4.5 3.9 3.9 3.8 3.5 4.3 4.4 3.1 1.8 1.7 1.7 2.0 1.8 2.2 2.9 3.5 3.6 3.7 3.4 3.1
6.5 6.5 6.5 6.5 6.5 6.5 6.5 6.5 6.5 6.5 6.5 6.5 6.5 6.5 6.7 6.9 7.0 6.9 7.1 6.8 5.9 5.2 4.9 4.6 3.8 3.6 4.0 4.1 4.1 3.9 3.8 3.3 2.4 1.5 0.8 1.0 1.5 1.3 1.5 2.1 2.2 2.5 2.4 2.3
6.5 6.5 6.5 6.5 6.5 6.5 6.5 6.5 6.4 6.5 6.5 6.5 6.4 6.5 6.7 6.6 6.5 6.5 6.8 6.3 5.6 4.3 4.1 4.4 5.2 6.0 5.3 5.3 5.1 4.5 4.5 4.1 4.0 3.0 2.3 1.2 1.0 0.9 0.5 0.9 1.7 1.9 2.1 2.2
6.5 6.5 6.5 6.5 6.5 6.5 6.5 6.3 6.3 6.5 6.5 6.5 6.5 6.1 6.6 6.5 5.0 5.7 5.8 6.4 5.4 4.7 6.0 6.6 6.5 5.5 5.5 5.8 5.6 4.9 4.3 3.8 3.7 3.4 2.4 1.2 1.0 1.0 0.4 0.5 0.4 0.1 0.6 1.3
6.5 6.5 6.5 6.5 6.5 6.5 6.4 6.3 6.5 6.5 5.3 5.9 4.5 5.2 5.9 5.0 5.5 5.7 5.9 6.3 6.5 6.5 6.9 7.1 6.6 5.9 5.7 5.6 5.1 4.6 4.5 4.4 3.6 2.6 2.0 1.7 1.4 1.1 0.5 0.2 0.3 0.1 -0.1 0.2
6.5 6.5 6.5 6.5 6.5 6.0 6.2 5.3 6.3 6.6 6.4 6.4 4.8 6.1 6.3 6.3 6.2 6.2 6.2 6.1 6.3 6.5 6.5 6.8 6.3 5.9 5.7 5.8 5.0 3.5 4.1 3.9 3.6 3.3 2.8 1.4 1.9 1.1 0.6 0.5 0.8 1.2 1.1 1.2
6.5 6.4 6.5 6.5 6.5 6.5 6.8 6.5 6.1 5.8 4.9 5.3 5.6 6.0 6.1 5.9 5.9 6.1 6.3 6.5 6.6 6.6 6.2 6.3 5.9 5.8 5.7 5.2 4.1 4.1 5.1 5.1 4.0 4.1 4.4 4.3 3.1 2.1 2.0 2.9 2.7 2.0 3.3 3.9
6.3 6.4 6.5 6.5 6.5 6.9 7.1 6.7 6.6 5.8 5.2 5.8 5.9 5.8 5.4 5.7 6.0 6.4 6.6 6.6 6.6 6.4 6.3 6.3 5.7 5.0 4.2 3.4 3.3 4.1 5.2 5.1 5.4 4.7 4.6 4.3 4.4 4.3 3.9 4.3 4.6 4.3 5.8 7.0
5.7 6.5 6.5 6.5 6.2 6.0 6.1 6.4 6.2 6.4 6.1 6.2 6.0 6.2 6.1 6.2 6.2 6.3 6.3 6.5 6.4 6.9 6.6 5.6 5.2 4.6 3.8 3.1 3.2 3.9 4.6 4.8 3.9 4.3 4.7 4.9 5.4 5.5 6.1 5.5 5.5 6.8 7.0 7.1
Wind_Speed
3 4 7 15 10 8 6 9 15 11 7 10 12 19 18 13 8 9 10 8 3 15 14 13 12 9 11 12 13 12 13 11 10 7 7 4 7 7 7 7 6 6 8 9
3 8 11 9 9 12 13 14 15 16 12 13 12 12 7 7 9 9 13 11 12 12 11 12 12 14 13 12 12 13 12 13 11 8 6 3 6 3 6 5 9 9 10 9
10 8 7 11 13 14 17 12 13 16 10 3 5 13 7 18 14 15 15 3 15 13 12 13 14 13 12 12 12 13 12 12 12 10 6 6 5 5 5 10 11 10 12 10
9 15 18 16 12 10 17 6 11 8 7 8 6 12 12 16 12 6 7 13 16 14 14 11 11 13 13 10 12 13 12 12 10 10 8 8 4 6 6 9 9 12 12 13
7 2 5 10 18 8 20 11 7 3 5 3 24 2 9 7 14 6 10 13 13 12 13 12 11 11 12 12 10 10 9 10 10 10 8 6 6 6 7 8 13 13 11 9
13 10 6 15 16 13 17 4 7 4 1 4 16 6 6 6 8 12 14 13 10 14 14 13 12 12 12 11 9 9 9 9 9 8 9 9 9 10 9 10 9 9 10 11
10 14 6 9 13 3 3 5 2 3 1 6 4 2 3 7 14 15 12 16 14 12 14 14 14 13 11 11 9 10 10 11 11 10 10 9 9 10 11 11 10 14 11 10
5 6 5 2 5 6 6 8 5 4 3 4 2 5 3 7 11 13 8 8 15 10 11 13 10 9 8 8 10 10 12 11 13 12 11 9 9 6 8 10 10 10 11 12
5 6 2 3 3 6 2 3 6 1 2 2 3 2 4 8 10 10 7 4 8 8 7 12 10 9 10 13 14 13 11 12 13 12 11 12 11 12 11 13 12 10 13 12
7 9 1 1 2 1 5 7 3 2 3 5 3 3 4 10 11 9 8 7 6 7 7 11 10 10 9 9 6 9 10 11 12 14 13 12 13 13 12 13 14 14 13 15
1 5 3 2 4 7 2 2 2 5 4 3 2 4 5 9 9 11 10 12 9 9 9 8 8 8 6 6 10 12 12 13 13 14 14 14 14 14 12 11 12 13 14 14
2 2 4 6 4 4 3 5 6 4 4 4 2 5 4 10 12 12 13 10 8 9 9 9 8 7 8 10 12 11 12 12 10 11 13 15 14 13 13 13 13 13 14 13
7 2 1 5 4 3 3 4 3 2 4 12 5 5 5 8 12 16 13 11 9 9 7 6 7 10 11 10 9 11 12 13 12 12 13 13 14 14 14 14 14 13 14 13
7 4 6 9 3 4 2 5 2 5 3 3 8 11 6 9 15 14 13 10 8 8 9 7 8 8 9 10 11 11 11 12 13 13 14 14 15 14 13 13 13 14 14 13
5 5 4 4 2 3 3 9 14 8 9 10 11 4 7 7 10 10 10 10 9 9 8 9 9 9 10 10 11 12 12 12 13 13 13 14 12 14 12 13 14 13 14 13
1 3 2 2 3 4 7 11 9 8 6 5 5 4 6 10 12 11 8 8 8 8 8 8 8 9 10 11 11 12 13 13 11 11 12 14 15 14 16 15 14 14 15 16
6 5 2 3 1 1 4 6 11 7 4 1 3 4 5 5 8 6 6 6 7 6 6 7 9 9 10 11 11 13 12 10 10 12 13 14 16 16 15 15 14 14 14 15
6 6 3 2 1 4 1 5 6 11 6 6 8 8 6 9 7 7 6 5 5 5 5 7 7 7 8 7 9 6 10 12 13 13 13 15 16 15 15 14 14 14 12 15
5 4 3 3 3 1 1 4 2 3 2 3 6 7 9 11 11 8 7 6 5 3 3 4 3 1 3 7 7 6 8 9 13 12 13 13 13 14 14 14 15 13 13 13
5 4 4 2 3 5 5 1 4 3 4 4 3 9 10 10 2 3 9 8 5 2 2 3 3 4 7 7 7 6 7 8 10 12 11 11 12 12 13 13 13 12 10 12
3 2 5 2 2 4 3 1 2 3 5 2 2 3 6 6 2 9 9 9 6 4 5 5 6 8 8 8 7 7 8 11 6 7 10 12 11 12 12 11 11 12 12 12
5 5 3 3 2 7 1 1 5 2 1 1 2 1 5 11 12 9 7 7 7 6 6 7 8 8 8 8 7 7 10 8 7 5 7 11 11 10 10 12 11 13 13 14
0 5 4 4 4 3 3 3 3 1 3 2 4 5 10 12 11 10 9 8 6 6 6 8 8 9 8 8 8 10 8 7 7 7 5 5 8 10 10 11 12 11 13 13
1 3 3 3 3 6 7 6 4 3 4 5 8 9 8 11 9 9 8 7 6 6 6 8 8 8 8 8 10 10 8 5 5 7 7 7 6 9 9 9 10 11 12 11
3 3 5 3 6 7 6 6 6 6 6 10 8 9 8 10 7 8 8 7 6 6 8 8 7 8 9 9 10 9 8 6 7 8 8 9 8 8 7 9 10 10 11 14
1 3 4 4 8 4 6 9 8 7 7 8 10 9 7 8 8 9 7 7 6 8 8 7 7 7 7 9 8 8 8 7 6 8 7 6 6 6 6 5 7 20 21 24
Wind_Direction
219 169 204 220 212 234 270 281 283 274 256 286 281 278 296 305 301 293 296 273 65 129 122 112 106 98 84 65 64 55 51 44 39 24 11 9 1 330 339 337 16 20 5 336
294 242 228 218 232 243 249 259 276 285 286 273 292 282 294 311 301 297 291 288 142 127 101 84 78 80 69 69 63 55 51 48 40 34 23 8 333 330 319 347 340 349 354 347
214 242 215 217 234 251 253 262 277 286 326 317 304 290 322 295 310 309 326 300 114 111 93 86 81 67 63 63 60 58 48 43 37 27 15 7 346 340 344 343 332 337 336 334
246 233 247 264 259 253 275 263 289 313 2 302 163 291 281 287 292 17 43 99 114 108 97 74 69 70 67 46 52 51 47 37 29 22 20 24 9 332 327 320 315 320 325 322
212 223 240 262 260 270 278 290 247 231 268 358 287 196 268 339 295 63 67 77 75 80 91 85 61 56 58 52 51 49 42 38 20 15 11 9 347 318 312 313 314 313 311 308
247 247 226 246 258 238 254 216 15 334 201 247 264 180 283 18 321 77 65 51 71 88 74 66 68 53 47 39 31 43 27 29 16 15 3 354 334 324 321 316 312 311 314 311
276 257 243 231 252 196 129 82 306 310 214 234 39 323 67 42 52 62 71 74 29 43 66 56 42 39 31 29 24 19 20 16 4 4 358 344 326 315 307 311 310 310 308 307
218 307 212 214 184 197 187 166 167 249 226 260 56 249 180 90 70 80 38 80 91 28 50 67 54 38 17 18 25 17 17 2 5 353 344 333 318 308 305 302 301 295 296 296
210 243 101 93 162 139 198 160 171 1 279 307 222 99 197 152 137 131 181 114 79 73 89 79 56 28 15 13 16 8 355 5 360 347 339 333 327 323 313 307 300 295 293 293
225 261 316 53 106 140 161 166 95 80 252 245 252 240 193 201 189 174 145 134 138 139 79 63 59 34 17 358 345 2 5 4 350 347 342 335 331 327 319 314 309 302 300 296
67 196 240 155 197 181 143 188 133 151 160 230 256 249 206 198 172 171 168 144 120 99 84 72 58 40 11 342 1 11 7 360 355 350 346 342 339 335 328 321 316 313 309 305
135 188 192 203 210 168 167 203 173 149 223 241 201 257 167 155 181 117 113 103 87 77 64 51 42 21 9 9 6 7 1 2 353 346 348 352 349 344 341 334 329 325 319 317
167 219 110 332 358 340 209 210 212 145 144 240 233 262 195 133 136 128 125 123 112 98 80 59 34 26 13 7 3 10 6 8 359 355 354 355 353 351 348 342 338 336 333 328
100 154 191 232 196 137 176 325 246 203 171 212 237 263 258 143 128 136 129 116 98 77 58 55 39 30 19 12 16 13 9 12 0 0 359 357 354 346 346 346 348 348 347 345
118 201 211 243 194 175 160 244 262 274 235 224 250 245 44 78 117 115 111 101 84 70 57 45 36 29 23 16 18 20 15 10 5 4 4 358 348 351 350 356 357 352 355 356
164 201 154 284 276 268 244 249 258 258 265 251 208 117 89 82 79 76 73 73 67 55 46 39 39 34 26 17 15 15 14 10 1 4 8 4 1 358 2 2 3 2 2 1
162 142 109 264 225 360 259 223 238 250 63 155 183 153 147 88 85 75 70 71 77 69 52 41 37 30 24 13 15 26 17 2 6 13 11 10 6 3 3 360 5 4 6 7
150 134 105 220 77 238 131 29 32 105 58 34 96 133 136 138 105 76 72 96 93 99 80 58 44 31 25 20 29 20 31 26 24 15 14 14 10 0 0 6 2 5 7 13
139 130 163 157 192 24 253 344 72 119 194 3 143 133 141 137 125 113 107 103 114 118 93 72 46 360 12 22 10 8 19 30 31 23 21 16 15 4 2 5 6 3 8 10
114 117 128 122 178 220 233 102 98 109 285 152 106 177 169 173 208 157 137 131 124 123 77 58 15 8 30 12 2 1 22 37 36 24 21 23 21 14 11 7 5 7 14 19
127 74 163 139 199 273 140 257 327 113 237 86 12 255 207 197 232 137 131 143 153 154 110 77 58 52 36 21 11 22 36 36 24 21 25 29 23 23 16 14 17 10 16 22
155 152 185 94 117 257 120 145 197 161 26 122 47 7 124 123 120 121 119 109 121 113 110 90 65 48 35 27 27 33 39 22 16 23 31 29 23 24 22 23 20 23 24 26
101 173 175 180 207 167 72 120 78 134 138 124 113 102 121 123 123 120 116 107 97 100 88 80 70 56 37 30 34 37 20 16 5 23 31 38 24 25 25 28 28 29 28 30
35 145 102 136 181 148 126 90 80 75 109 106 120 122 122 121 120 115 112 109 105 93 91 86 76 66 51 34 38 32 13 4 22 35 36 36 44 33 29 33 32 30 30 30
198 115 123 91 129 130 143 129 124 99 96 110 108 121 123 123 118 117 115 108 101 100 97 92 86 66 47 33 26 11 8 6 45 45 39 35 34 36 26 35 41 38 33 37
20 143 165 214 170 132 153 140 134 132 129 132 128 118 110 114 111 110 98 99 112 114 107 99 83 72 51 40 21 1 357 21 33 47 40 31 32 29 32 28 42 40 45 44